Theta_e
319 319 319 319 319 320 320 319 320 320 321 323 324 324 325 326 325 324 316 328 333 350 351 337 335 330 330 326 332 333 319 316 317 320 323 332 329 335 340 336 338 339 337 342 347
319 319 319 318 319 319 319 319 319 320 320 322 323 324 326 326 321 316 332 349 356 356 327 323 323 324 321 320 327 324 318 316 322 326 325 330 330 332 334 334 334 337 343 347 347
318 318 318 318 318 318 319 318 318 319 319 321 323 324 326 326 315 315 346 357 355 352 326 325 324 322 319 320 321 323 318 321 323 328 329 329 328 333 333 329 334 334 339 343 344
318 318 318 318 318 318 318 318 318 318 319 321 323 325 326 323 305 320 352 360 359 338 327 324 323 322 319 317 319 316 322 323 327 331 328 327 331 332 333 334 340 340 342 342 341
317 317 317 317 317 317 317 317 317 317 318 321 323 325 322 312 314 323 340 348 345 333 325 324 322 321 318 318 317 317 319 323 329 330 329 330 329 332 333 339 341 341 341 340 341
317 318 317 317 317 317 317 316 316 316 319 321 324 326 317 306 319 322 321 323 327 325 325 326 325 325 320 318 317 319 319 322 329 329 329 328 326 330 335 339 339 339 339 341 341
317 317 317 316 316 316 316 315 315 316 320 321 324 324 312 309 321 320 321 322 322 324 323 326 327 323 321 318 319 318 316 319 326 328 327 328 322 324 337 338 337 338 340 341 342
317 316 316 316 316 315 315 314 315 318 320 322 325 320 305 314 319 320 322 322 322 323 323 325 327 323 319 320 318 315 317 313 318 327 327 326 316 326 338 337 335 337 338 340 342
316 316 316 315 315 314 313 313 317 320 321 323 319 312 305 321 318 321 322 319 321 322 325 325 324 318 318 316 314 314 309 311 314 325 325 324 318 323 337 336 335 337 338 339 341
316 316 315 315 314 313 312 314 316 318 320 322 319 310 311 312 317 319 321 321 319 321 322 321 319 318 316 315 308 308 308 310 311 317 323 321 320 327 334 335 336 337 338 339 340
316 315 315 314 313 312 311 310 306 304 312 303 303 306 313 315 317 317 320 319 320 320 319 315 315 312 312 313 313 311 309 308 311 316 320 320 320 317 330 333 333 335 337 338 339
315 315 314 314 313 311 309 306 303 309 304 308 307 307 310 313 308 315 319 315 316 315 315 315 311 314 314 313 311 311 308 307 310 315 317 314 316 320 325 331 334 334 335 336 338
316 316 315 313 312 309 307 308 311 311 304 306 308 307 308 310 308 312 317 316 314 312 314 313 313 314 313 312 310 309 308 307 309 310 312 311 311 316 321 328 333 335 337 338 338
315 315 314 312 307 309 308 311 314 311 302 304 307 310 309 311 308 315 318 316 313 313 314 314 315 312 310 309 311 308 310 309 308 309 305 310 303 314 317 320 324 330 333 336 338
315 315 313 311 306 308 311 314 309 310 292 302 306 312 308 309 311 310 316 316 311 312 314 312 312 310 310 310 311 309 311 309 308 307 307 308 306 312 317 319 324 331 334 333 337
314 313 312 309 308 311 313 313 310 302 292 302 306 304 304 307 307 309 312 315 315 313 312 313 312 312 312 311 311 310 310 309 309 308 303 307 307 311 316 317 319 326 332 334 336
312 310 310 311 308 313 312 310 302 295 306 302 302 305 306 304 306 307 308 308 309 307 307 310 313 312 312 310 310 310 308 303 301 302 302 309 308 312 318 319 321 324 330 335 337
309 308 310 312 312 313 312 308 295 300 303 307 302 303 304 305 305 304 305 304 307 310 307 305 304 309 312 312 310 308 308 303 296 298 302 310 307 314 321 326 327 329 334 335 337
309 310 308 311 314 312 311 300 297 302 308 308 301 302 301 303 304 304 304 306 308 309 307 304 304 308 310 310 311 306 306 307 304 305 305 308 312 318 321 323 326 330 334 334 336
309 311 313 312 314 311 309 299 304 308 311 309 300 302 300 301 302 303 303 306 306 309 312 307 304 306 309 311 310 309 308 304 307 300 298 306 308 311 317 321 325 329 332 334 335
311 312 312 313 312 310 304 306 307 312 312 305 304 301 302 301 303 302 304 305 309 307 310 308 306 306 310 310 307 307 308 307 309 307 302 301 307 317 318 322 324 328 334 332 331
307 309 312 311 305 304 305 307 304 309 310 308 307 306 303 303 303 304 304 307 309 310 307 309 306 305 307 311 312 312 311 311 307 305 308 307 308 317 319 321 324 328 333 330 334
308 309 311 307 303 304 305 306 309 307 307 306 307 308 307 305 303 305 305 308 308 310 309 308 306 303 307 311 313 313 311 309 310 311 308 305 308 320 324 324 326 328 331 332 335
309 304 306 307 304 305 304 305 304 309 308 310 309 309 305 304 304 304 305 309 308 311 322 314 305 306 302 307 312 310 310 309 310 308 307 309 310 317 322 325 324 330 332 334 337
309 312 307 301 303 305 306 304 303 303 309 309 309 309 308 305 305 305 309 312 312 319 311 313 308 309 310 310 311 309 309 310 310 310 308 309 309 315 319 325 330 331 325 322 321
312 313 315 313 313 307 304 307 305 307 307 308 306 311 311 310 310 307 310 313 311 312 312 311 309 311 307 310 311 309 310 310 311 309 310 311 312 315 321 321 318 318 320 320 321
310 313 314 307 313 312 312 311 312 314 317 313 312 312 312 313 314 315 316 316 316 313 312 312 309 309 304 306 307 305 309 310 310 311 312 310 314 315 315 315 316 319 320 320 321
Wind_Speed
14 14 14 14 14 14 13 13 13 14 14 16 16 16 15 16 17 2 6 7 3 11 3 3 1 3 2 2 1 1 2 2 1 2 3 6 3 4 5 10 4 4 5 14 18
14 14 15 14 14 14 14 13 13 14 14 16 16 16 14 15 4 8 8 8 3 11 4 3 8 5 3 2 1 1 1 3 1 4 2 6 3 8 5 8 5 13 17 20 19
14 14 15 14 14 14 13 13 13 14 15 16 15 16 14 11 4 2 9 5 12 7 1 2 2 3 1 1 3 4 3 3 0 5 3 6 4 3 8 5 6 15 19 20 19
14 14 15 15 15 14 13 13 13 13 14 16 15 16 17 3 3 2 8 5 10 7 2 3 1 4 2 3 2 4 9 7 3 5 5 6 8 4 1 4 11 19 21 19 18
15 15 15 15 15 14 13 12 12 13 13 14 14 15 5 0 7 3 6 5 8 8 5 3 2 1 4 3 2 5 4 4 3 6 7 8 4 5 6 12 19 20 17 18 16
15 15 15 15 15 14 13 12 11 12 13 13 13 14 2 4 1 2 8 0 6 6 6 7 5 4 5 3 2 3 5 2 6 5 4 7 4 4 6 15 17 21 17 16 17
16 16 16 16 15 15 14 12 12 12 12 12 10 4 2 11 3 8 7 4 4 6 5 6 4 4 1 2 3 4 0 2 5 6 4 5 4 3 15 16 18 16 17 16 15
16 16 16 16 16 16 14 13 12 12 10 9 6 2 8 3 5 11 4 3 5 6 4 1 4 2 1 4 3 3 1 3 2 7 1 5 3 7 17 17 16 16 15 15 17
16 16 16 17 16 15 15 15 15 11 6 6 2 2 7 5 4 3 5 3 4 3 2 4 1 4 1 2 2 5 1 4 4 9 6 8 4 5 15 15 15 15 15 15 14
16 16 16 16 16 15 18 13 1 2 3 3 3 4 5 2 4 4 4 3 2 4 5 1 4 1 1 4 2 1 4 3 6 3 6 8 11 5 12 14 13 14 14 14 14
15 15 16 16 15 14 9 2 2 3 2 6 2 4 3 10 4 3 2 5 2 2 7 3 3 3 3 1 3 3 3 6 5 4 8 10 8 2 8 12 12 13 14 14 16
17 14 17 16 15 11 3 2 1 3 6 9 9 8 6 3 4 2 4 4 3 6 5 5 5 2 3 3 6 5 4 0 2 5 6 2 4 4 1 9 15 14 14 15 10
16 14 15 16 13 2 2 3 2 2 3 3 5 5 5 7 3 4 8 5 3 6 8 10 5 4 2 3 5 4 2 1 3 5 6 1 2 4 1 2 8 11 13 13 7
18 15 13 17 3 2 4 1 5 4 3 4 5 5 6 3 3 4 6 4 3 9 8 5 0 1 2 4 4 1 3 2 4 4 2 3 4 4 4 7 2 7 11 13 10
18 14 12 5 5 4 3 6 5 3 3 4 4 3 2 6 5 4 2 4 6 7 7 6 5 2 6 3 3 3 4 3 2 4 4 3 4 2 3 5 5 6 6 5 6
18 14 10 2 4 6 5 5 3 3 4 4 5 7 8 3 2 4 5 3 3 5 2 4 1 2 2 3 2 7 3 4 2 1 2 3 5 2 0 2 3 4 5 5 10
20 17 7 4 1 1 3 4 3 5 1 6 4 7 8 6 4 5 10 8 8 11 8 4 10 4 3 6 5 3 3 3 3 3 2 0 4 3 1 3 3 5 1 5 8
23 7 5 6 3 4 3 3 4 2 4 2 3 6 11 8 4 3 7 8 4 5 7 9 10 7 6 3 2 3 5 4 4 4 2 2 3 2 1 1 1 1 2 4 8
15 2 2 4 11 3 3 4 3 4 2 2 4 11 7 5 3 3 6 11 8 7 6 8 6 3 3 2 2 6 4 3 6 1 3 1 3 8 6 4 2 3 5 4 4
3 2 0 3 11 3 3 4 4 3 4 1 5 5 14 8 8 11 8 7 8 11 4 5 2 3 4 2 9 3 8 4 1 4 3 3 4 4 4 7 5 5 7 7 5
3 2 5 3 5 2 7 5 4 4 4 3 1 4 6 8 11 7 11 4 15 10 6 5 2 4 3 3 4 6 4 6 5 3 3 3 2 1 7 8 5 6 8 7 4
3 2 3 4 4 1 5 5 1 4 4 9 3 8 9 10 8 8 11 8 11 15 10 4 2 2 3 3 1 2 3 4 3 5 1 2 2 4 7 5 2 5 11 6 5
2 1 3 4 4 3 2 3 5 7 6 4 4 8 5 9 6 7 8 4 14 12 13 11 3 4 6 4 4 2 3 3 6 2 6 4 1 4 5 5 6 6 11 10 6
2 3 3 1 2 2 4 3 4 4 10 9 5 5 6 6 4 9 7 4 8 7 7 8 4 3 7 2 3 5 4 2 2 3 4 6 2 4 8 8 3 8 11 11 10
2 1 3 5 6 4 0 1 10 8 5 5 4 10 7 5 5 5 5 7 6 7 5 5 4 3 5 4 4 4 4 3 3 1 5 4 3 6 6 6 8 11 13 14 12
2 2 2 1 2 6 5 3 5 5 5 3 5 4 11 8 10 10 9 5 5 4 5 2 5 6 5 4 5 5 4 4 4 2 2 2 4 4 8 10 11 11 11 13 12
2 1 3 3 4 4 4 6 5 3 8 13 12 8 6 13 4 5 5 9 10 10 6 4 8 4 5 3 3 4 3 2 1 1 2 6 5 9 10 11 10 9 11 11 10
Wind_Direction
349 346 345 343 341 337 332 328 326 323 322 321 325 327 331 323 314 253 266 235 177 174 146 104 270 85 105 45 289 259 333 326 38 172 317 134 111 115 81 126 73 29 125 133 148
348 346 344 341 339 336 331 327 323 321 322 322 323 326 327 328 297 261 259 277 227 156 217 329 329 359 46 57 152 154 266 246 133 189 240 124 138 137 131 136 77 79 103 129 147
345 345 343 340 338 336 330 326 323 321 321 319 323 323 319 318 275 267 319 308 183 193 297 73 286 338 0 205 159 155 243 325 28 196 144 140 112 120 144 175 169 147 138 147 157
344 344 342 339 337 335 330 325 321 318 318 317 323 323 318 261 164 209 335 357 171 175 179 128 152 301 314 319 198 234 233 252 313 152 123 131 124 105 53 56 128 146 150 153 168
343 343 340 339 335 332 328 322 316 313 315 316 324 325 315 320 251 172 356 42 148 165 174 187 242 285 301 280 244 242 276 175 240 128 115 129 119 112 79 106 125 140 157 165 173
342 339 340 338 335 331 326 321 312 308 308 315 322 319 284 239 191 125 346 236 212 204 179 190 214 234 271 257 279 297 296 100 158 146 142 138 130 173 118 132 138 152 169 177 182
341 340 340 337 335 330 325 318 308 305 307 311 319 326 261 244 169 307 302 213 216 203 201 209 205 217 351 278 321 318 277 138 141 191 154 149 156 171 149 152 153 170 173 187 192
341 341 339 338 335 328 321 312 299 297 298 302 308 268 256 248 293 288 236 234 218 234 245 14 175 97 299 301 31 33 71 223 128 165 120 218 287 157 161 161 168 177 187 193 199
341 341 340 337 335 328 319 306 292 282 277 276 265 304 258 309 235 284 217 203 176 162 220 118 86 48 348 33 107 30 327 287 282 203 143 215 295 131 175 179 175 186 194 201 205
340 339 339 337 336 331 320 302 223 231 182 208 262 278 244 61 300 303 194 215 142 131 144 153 63 119 113 21 132 290 319 248 257 168 200 191 252 107 182 194 193 194 200 205 209
339 336 335 334 335 334 340 193 191 187 204 218 179 278 307 315 247 208 165 135 137 139 181 56 222 246 342 315 331 287 260 265 264 218 193 228 274 343 200 204 205 207 214 214 214
341 332 333 331 330 321 284 228 146 350 297 228 240 272 275 277 304 238 176 164 176 169 142 177 235 111 169 238 247 252 253 246 38 119 210 154 247 309 240 228 217 213 224 225 210
336 328 329 329 329 273 261 230 337 277 276 278 195 221 234 179 224 232 185 145 160 162 175 211 133 208 189 222 274 200 258 138 117 118 65 100 233 301 47 334 241 232 242 252 221
338 332 330 330 266 337 240 195 296 211 293 197 210 231 162 189 244 210 202 168 181 182 166 217 98 175 31 274 254 144 249 96 141 192 139 312 295 269 0 341 225 254 252 243 220
333 327 323 339 314 225 65 328 123 195 223 127 152 133 141 198 127 175 194 136 204 166 192 160 167 229 330 213 216 72 49 24 59 98 175 38 248 301 20 54 31 4 333 257 184
328 319 307 225 220 252 309 302 210 225 237 163 138 159 158 207 134 114 165 116 122 142 173 190 155 250 240 227 112 140 101 73 79 138 169 42 285 220 105 54 300 22 24 88 124
322 312 235 178 234 51 282 191 185 240 347 161 166 170 171 156 167 152 169 150 177 171 189 219 253 260 211 218 104 153 176 262 244 204 23 25 237 339 333 30 299 333 4 143 115
324 318 204 225 293 302 199 200 215 258 246 69 138 143 186 158 166 126 147 166 86 144 165 192 216 200 183 235 185 181 248 237 252 207 49 153 234 74 355 335 302 343 85 156 139
321 166 213 251 218 275 204 200 239 218 331 354 141 171 170 180 161 165 189 189 183 186 171 182 229 198 44 122 252 149 200 40 119 92 243 63 246 258 244 199 215 94 109 136 120
308 275 286 43 163 212 207 230 246 234 315 286 206 200 189 167 172 192 179 180 194 200 201 169 192 75 112 104 63 249 124 167 168 180 224 185 266 267 250 220 190 146 126 89 65
263 224 25 127 178 199 212 231 273 262 229 333 343 192 185 165 184 171 193 180 195 170 199 160 250 117 165 23 154 152 171 69 104 335 255 248 214 195 281 269 219 121 113 97 69
319 165 66 183 181 272 216 213 297 276 246 283 251 229 192 164 164 191 201 243 176 149 172 167 104 76 61 39 195 356 101 179 227 172 86 309 224 18 303 286 230 105 118 108 106
1 46 133 276 206 201 211 255 253 272 262 220 238 221 192 164 171 199 203 175 156 154 161 175 201 152 135 177 169 89 78 92 97 115 180 235 176 21 35 95 80 116 116 119 103
263 147 147 208 302 234 202 269 255 264 263 239 241 178 168 195 216 177 166 145 196 160 104 137 122 219 206 136 112 146 119 130 293 210 148 240 277 36 23 29 64 81 101 110 109
222 111 345 187 209 180 173 277 288 290 241 220 218 223 183 154 167 172 156 134 102 139 104 195 142 128 77 114 98 102 134 165 232 359 253 14 220 27 19 43 71 88 93 92 78
319 327 347 135 160 170 183 231 254 265 243 247 234 356 215 182 182 178 158 169 161 156 133 94 122 132 67 76 112 111 76 99 74 111 277 193 113 58 92 98 81 73 79 75 67
354 262 271 131 158 191 205 223 264 0 250 248 279 295 250 229 205 104 112 114 133 146 132 126 144 159 133 215 184 171 18 333 128 198 268 207 128 141 118 95 79 80 72 69 58